Regional Weather Roundup
Issued by NWS

Home | Current Version | Previous Version | Text Only | Print | Product List | Glossary On
Versions: 1 2 3 4 5 6 7 8 9 10 11 12 13 14 15 16 17 18 19 20 21 22 23 24 25 26 27 28 29 30 31 32 33 34 35 36 37 38 39 40 41 42 43 44 45 46 47 48 49 50
000
ASUS43 KMPX 242010
RWRMN
WEATHER ROUNDUP FOR MINNESOTA
NATIONAL WEATHER SERVICE TWIN CITIES/CHANHASSEN MN
200 PM CST TUE JAN 24 2017


NOTE: "FAIR" INDICATES FEW OR NO CLOUDS BELOW 12,000 FEET WITH NO
SIGNIFICANT WEATHER AND/OR OBSTRUCTIONS TO VISIBILITY. N/A MEANS
CURRENT SKY AND/OR WEATHER CONDITIONS ARE NOT AVAILABLE.

MNZ060>063-068>070-242100-
   Twin Cities Metro

CITY           SKY/WX    TMP DP  RH WIND       PRES   REMARKS
TWIN CITIES    CLOUDY    32  26  78 E7        29.82F WCI  26
ST PAUL        CLOUDY    32  27  81 NE6       29.83F WCI  26
CRYSTAL        CLOUDY    32  25  75 NE8       29.81F WCI  25
BLAINE         CLOUDY    34  30  86 E8        29.82F WCI  27
LAKEVILLE      CLOUDY    28  28 100 E7        29.80F FOG     WCI  21
EDEN PRAIRIE   CLOUDY    32  26  78 NE8       29.80F WCI  25
SOUTH ST PAUL  CLOUDY    32  28  86 NE6       29.82F WCI  26
LAKE ELMO      CLOUDY    32  28  86 N5        29.83F WCI  27
$$
MNZ001>005-007-008-013>017-022>024-027-028-242100-
   Northwest Minnesota

CITY           SKY/WX    TMP DP  RH WIND       PRES   REMARKS
BEMIDJI        CLOUDY    27  22  83 W3        29.81F
HALLOCK        CLOUDY    28  25  86 W3        29.84S
ROSEAU         PTSUNNY   27  21  80 SW6       29.83F WCI  20
WARROAD        CLOUDY    27  23  86 CALM      29.83F
THIEF RVR FALL CLOUDY    26  21  81 W5        29.85F WCI  20
CROOKSTON      CLOUDY    27  21  80 W5        29.86F WCI  21
FOSSTON        CLOUDY    25  19  80 W6        29.84F WCI  18
DETROIT LAKES  CLOUDY    28  27  93 NW7       29.83S WCI  21
MOORHEAD       CLOUDY    27  21  80 VRB6      29.86F WCI  20
PARK RAPIDS    CLOUDY    30  23  75 CALM      29.80F
MAHNOMEN       CLOUDY    26  22  86 W3        29.83F
$$
MNZ006-009>011-018-025>026-242100-
   North Central Minnesota

CITY           SKY/WX    TMP DP  RH WIND       PRES   REMARKS
BAUDETTE       CLOUDY    26  21  81 CALM      29.82F
FLAG ISLAND    CLOUDY    27  21  80 SW12      29.82F WCI  16
INTL FALLS     CLOUDY    28  22  78 VRB5      29.82F WCI  23
WASKISH        CLOUDY    27  21  80 W8        29.84S WCI  18
BIG FORK       CLOUDY    30  25  80 CALM      29.81F
LONGVILLE      CLOUDY    30  23  74 CALM      29.81S
GRAND RAPIDS   CLOUDY    29  23  78 CALM      29.83F
CRANE LAKE     CLOUDY    27  25  93 CALM      29.84F
ORR            CLOUDY    28  21  74 CALM      29.79F
COOK           CLOUDY    28  25  86 W3        29.81F
WALKER         CLOUDY    29  23  80 CALM      29.81F
$$
MNZ012-019>021-037-242100-
   Northeast Minnesota

CITY           SKY/WX    TMP DP  RH WIND       PRES   REMARKS
DULUTH         CLOUDY    31  25  78 N7        29.79F WCI  24
ELY            CLOUDY    28  25  86 CALM      29.80F
HIBBING        CLOUDY    27  25  92 NW5       29.80F WCI  22
EVELETH        CLOUDY    30  25  81 N3        29.81F
DULUTH HARBOR  CLOUDY    34  27  75 CALM      29.84S
TWO HARBORS    CLOUDY    36  28  75 NE6       29.79F
SILVER BAY     CLOUDY    34  28  80 CALM      29.80S
GRAND MARAIS     N/A     38  33  82 SW6       29.81F
G MARAIS ARPRT CLOUDY    30  25  80 NW5       29.78F WCI  25
$$
MNZ029>031-032-039>041-046>048-054>057-064-242100-
   West Central Minnesota

CITY           SKY/WX    TMP DP  RH WIND       PRES   REMARKS
FERGUS FALLS   CLOUDY    30  25  80 CALM      29.87S
WHEATON        CLOUDY    30  27  86 N6        29.84F WCI  24
MORRIS         CLOUDY    34  27  75 NE6       29.80F WCI  29
ALEXANDRIA     CLOUDY    31  25  78 CALM      29.82S
ELBOW LAKE     CLOUDY    31  27  84 CALM      29.84R FOG
WADENA         CLOUDY    28  25  86 N6        29.81S WCI  22
GLENWOOD       CLOUDY    30  27  86 NE8       29.80F WCI  23
APPLETON       CLOUDY    34  27  75 NE7       29.81F WCI  28
ORTONVILLE     CLOUDY    32  27  80 CALM      29.80F
MADISON        CLOUDY    34  28  80 E10       29.80F WCI  26
WILLMAR        CLOUDY    32  28  86 CALM      29.81F
$$
MNZ033>034-036-042>043-049>051-058-059-242100-
   Central Minnesota

CITY           SKY/WX    TMP DP  RH WIND       PRES   REMARKS
ST CLOUD       CLOUDY    32  26  78 NE5       29.82F WCI  27
SAUK CENTRE    CLOUDY    31  26  80 NE5       29.82F WCI  26
PAYNESVILLE    CLOUDY    32  29  90 NE7       29.80F WCI  25
AITKIN         CLOUDY    34  23  64 CALM      29.80F
PINE RIVER     CLOUDY    30  25  80 CALM      29.85S
BRAINERD       CLOUDY    30  24  78 NW8       29.81F WCI  22
STAPLES        CLOUDY    30  23  74 CALM      29.81F
LONG PRAIRIE   CLOUDY    32  27  80 CALM      29.83R
LITTLE FALLS   CLOUDY    32  27  80 CALM      29.84R
LITCHFIELD     CLOUDY    30  27  86 E8        29.81F WCI  23
BUFFALO        CLOUDY    31  26  80 NE6       29.82F WCI  25
MAPLE LAKE     CLOUDY    32  28  86 NE7       29.82F WCI  26
HUTCHINSON     CLOUDY    32  28  86 NE9       29.81F WCI  24
$$
MNZ037-044-045-052-053-242100-
   East Central Minnesota

CITY           SKY/WX    TMP DP  RH WIND       PRES   REMARKS
PRINCETON      CLOUDY    34  27  75 CALM      29.83F
MORA           CLOUDY    32  27  80 CALM      29.86R
CAMBRIDGE      CLOUDY    34  25  69 N5        29.82F WCI  30
RUSH CITY      CLOUDY    32  27  80 CALM      29.84S
MOOSE LAKE     CLOUDY    32  27  80 CALM      29.81R
HINCKLEY       CLOUDY    32  28  86 E3        29.83R
CLOQUET        CLOUDY    30  25  80 N5        29.80S WCI  25
MCGREGOR       CLOUDY    32  27  80 N5        29.81F WCI  27
$$
MNZ071>073-080-081-089-090-097-098-242100-
   Southwest Minnesota

CITY           SKY/WX    TMP DP  RH WIND       PRES   REMARKS
MONTEVIDEO     CLOUDY    30  27  86 E8        29.82F WCI  23
GRANITE FALLS  CLOUDY    32  28  86 NE8       29.81F WCI  25
CANBY          CLOUDY    31  28  90 NE10      29.79F WCI  22
MARSHALL       CLOUDY    30  27  88 E13       29.79F WCI  20
REDWOOD FALLS  CLOUDY    31  25  78 NE8       29.80F WCI  23
OLIVIA         CLOUDY    32  28  86 NE8       29.80F WCI  25
PIPESTONE      CLOUDY    28  28 100 E12G17    29.72F FOG     WCI  18
WINDOM         CLOUDY    30  28  93 E12       29.76S WCI  21
WORTHINGTON    CLOUDY    29  28  96 E14       29.74F FOG     WCI  18
JACKSON        CLOUDY    30  28  93 E12       29.76S FOG     WCI  21
TRACY          CLOUDY    31  29  94 E12       29.77F WCI  21
SLAYTON        CLOUDY    28  28  99 E10       29.75F FOG     WCI  19
$$
MNZ065>067-074>077-082>085-091>093-242100-
   South Central Minnesota

CITY           SKY/WX    TMP DP  RH WIND       PRES   REMARKS
MANKATO        CLOUDY    31  27  85 E7        29.80F FOG     WCI  24
NEW ULM        CLOUDY    30  27  86 E9        29.79F WCI  22
ST JAMES       CLOUDY    30  27  86 E9        29.80S WCI  22
FAIRMONT       CLOUDY    31  28  89 E10       29.78F WCI  22
GLENCOE        CLOUDY    32  29  89 E7        29.79F WCI  26
OWATONNA       CLOUDY    30  28  93 E7        29.79F FOG     WCI  23
WASECA         CLOUDY    32  30  93 E9        29.79F FOG     WCI  24
ALBERT LEA     CLOUDY    30  28  93 SE8       29.78S FOG     WCI  23
$$
MNZ078>079-086>088-094>096-242100-
   Southeast Minnesota

CITY           SKY/WX    TMP DP  RH WIND       PRES   REMARKS
ROCHESTER      CLOUDY    30  28  92 E9        29.78F FOG     WCI  22
RED WING       CLOUDY    36  27  69 SE5       29.81F
STANTON        CLOUDY    33  29  85 E8        29.79F WCI  26
DODGE CENTER   CLOUDY    30  28  93 MISG      29.78F
WINONA         CLOUDY    34  28  80 E5        29.82F WCI  30
AUSTIN         CLOUDY    30  27  86 E9        29.78F FOG     WCI  22
PRESTON        CLOUDY    31  27  84 SE3       29.79F
$$
ABBREVIATIONS USED IN REMARKS
   TC - TEMPERATURES IN CELSIUS
  WCI - WIND CHILL INDEX
   HX - HEAT INDEX
  VSB - VISIBILITY
$$




USA.gov is the U.S. government's official web portal to all federal, state and local government web resources and services.